Regional Weather Roundup
Issued by NWS

Home | Current Version | Previous Version | Graphics & Text | Print | Product List | Glossary On
Versions: 1 2 3 4 5 6 7 8 9 10 11 12 13 14 15 16 17 18 19 20 21 22 23 24 25 26 27
000
ASUS45 KBOU 260407
RWRCO

WEATHER ROUNDUP FOR COLORADO
NATIONAL WEATHER SERVICE DENVER/BOULDER CO
1000 PM MDT SAT OCT 25 2014

NOTE: "FAIR" INDICATES FEW OR NO CLOUDS BELOW 12000 FEET WITH NO
SIGNIFICANT WEATHER AND/OR OBSTRUCTIONS TO VISIBILITY.

COZ001>005-013-030-031-260500-
...NORTHWEST COLORADO...

CITY           SKY/WX    TMP DP  RH WIND       PRES   REMARKS
CRAIG          CLEAR     46  31  55 SE5       30.10S
HAYDEN         PTCLDY    48  25  40 SW3       30.11F
MEEKER         CLEAR     48  32  53 CALM      30.13R
MOUNT WERNER   NOT AVBL
STEAMBOAT SPGS PTCLDY    48  25  40 CALM      30.13F
WALDEN         CLEAR     36  21  55 SE9       30.18F
$$

COZ006>008-011-260500-
...WEST CENTRAL VALLEYS...

CITY           SKY/WX    TMP DP  RH WIND       PRES   REMARKS
GRAND JUNCTION PTCLDY    54  32  43 E7        30.06F
MONTROSE       MOCLDY    53  35  50 E9        30.17R
EAGLE          CLEAR     46  30  53 SE5       30.18R
RIFLE          CLEAR     53  34  48 SE8       30.10S
DELTA          PTCLDY    67  33  28 S3        30.12S
NUCLA          MOCLDY    55  32  41 E13       30.20F
$$

COZ017>023-064>068-260500-
...SOUTHWEST COLORADO...

CITY           SKY/WX    TMP DP  RH WIND       PRES   REMARKS
DURANGO        PTCLDY    51  35  54 N3        30.25R
CORTEZ         MOCLDY    52  37  56 CALM      30.19S
PAGOSA SPRINGS MOCLDY    48  28  47 CALM      30.31S
TELLURIDE      PTCLDY    53  28  39 CALM      30.38R
WOLF CREEK PAS MOCLDY    37  27  65 SW26G32     N/A
$$

COZ009-010-012-014-032>034-037-058>063-260500-
...CENTRAL COLORADO...

CITY           SKY/WX    TMP DP  RH WIND       PRES   REMARKS
ASPEN          CLEAR     45  28  51 CALM      30.23S
BUENA VISTA    CLEAR     45  19  35 NW5       30.24S
COPPER MTN     NOT AVBL
BERTHOUD PASS  FAIR      37  34  87 W8        30.48F
COTTONWOOD PAS CLEAR     54  21  28 SW9       30.35S
GUNNISON       CLEAR     43  27  52 NE3       30.28S
KREMMLING      PTCLDY    41  23  48 CALM        N/A
LEADVILLE      CLEAR     38  18  44 SW3       30.33F
MONARCH PASS   CLEAR     41  23  48 W23       30.57F
SALIDA         CLEAR     56  23  27 W9        30.29S
SUNLIGHT       CLEAR     43  27  52 CALM      30.40R
WILKERSON PASS NOT AVBL
$$

COZ069>075-260500-
...SAN LUIS VALLEY/SANGRE DE CRISTO MOUNTAINS...

CITY           SKY/WX    TMP DP  RH WIND       PRES   REMARKS
ALAMOSA        CLEAR     49  24  37 SW8       30.25S
LA VETA PASS   CLEAR     46  21  36 S13G20    30.36F
SAGUACHE       CLEAR     54  23  30 CALM      30.25F
$$

COZ035-036-038>040-260500-
...NORTHERN COLORADO FRONT RANGE...

CITY           SKY/WX    TMP DP  RH WIND       PRES   REMARKS
DENVER INTL AP CLEAR     58  25  28 SW13      30.01F
DMNS CITY PARK   N/A     56  27  33 W2        30.01F
AURORA         CLEAR     56  25  30 SW9       30.04F
FRONT RANGE AP NOT AVBL
ERIE MUNI ARPT CLEAR     45  32  60 CALM      30.01F
BOULDER MUN AP CLEAR     55  30  38 CALM      30.01F
CENTENNIAL     CLEAR     58  23  26 W8        30.05F
BROOMFIELD     CLEAR     64  21  19 NW7       30.04F
FORT COLLINS   CLEAR     55  27  33 N6        30.02F
LONGMONT       CLEAR     54  27  35 W6        30.02F
$$

COZ041-046-047-076>085-087-088-260500-
...PIKES PEAK/PALMER DIVIDE AND SOUTHERN FOOTHILLS...

CITY           SKY/WX    TMP DP  RH WIND       PRES   REMARKS
COLO. SPRINGS  CLEAR     60  23  24 E7        30.10F
A. F. ACADEMY  CLEAR     46  25  45 N9        30.11F
ELLICOTT       NOT AVBL
FALCON         CLEAR     53  22  30 W5        30.14F
FORT CARSON    CLEAR     59  27  29 NW7       30.07F
LIMON          CLEAR     42  31  64 N5        30.04F
MONUMENT HILL  CLEAR     52  21  30 SW5       30.13S
TRINIDAD       CLEAR     58  27  30 W15       30.08F
$$

COZ042>045-048>051-090-091-260500-
...NORTHEAST COLORADO...

CITY           SKY/WX    TMP DP  RH WIND       PRES   REMARKS
GREELEY ARPT   CLEAR     48  28  46 NW9       30.00S
AKRON          CLEAR     57  34  41 SE9       29.99F
BURLINGTON     CLEAR     51  36  56 W5        29.97F
WRAY           NOT AVBL
STERLING       CLEAR     52  37  58 N5        29.95F
HOLYOKE        CLEAR     54  43  66 E8        29.96F
FORT MORGAN    CLEAR     53  31  43 NE6       29.99F
$$

COZ086-089-092>099-260500-
...SOUTHEAST COLORADO...

CITY           SKY/WX    TMP DP  RH WIND       PRES   REMARKS
PUEBLO         CLEAR     53  29  39 N7        29.99F
LA JUNTA       CLEAR     61  34  36 NW5       29.94F
LAMAR          CLEAR     58  35  42 S9        29.91F
SPRINGFIELD      N/A     64  39  39 S16       30.00F
$$



USA.gov is the U.S. government's official web portal to all federal, state and local government web resources and services.